Regional Weather Roundup
Issued by NWS

Home | Current Version | Previous Version | Text Only | Print | Product List | Glossary Off
Versions: 1 2 3 4 5 6 7 8 9 10 11 12 13 14 15 16 17 18 19 20 21 22 23 24 25 26 27

000
ASUS45 KSLC 031710
RWRUT

UTAH REGIONAL WEATHER ROUNDUP
NATIONAL WEATHER SERVICE SALT LAKE CITY UT
1100 AM MDT TUE MAY 03 2016

UTZ001>011-023>025-031800-

NORTHERN UTAH

CITY           SKY/WX    TMP DP  RH WIND       PRES   REMARKS
BRIGHAM CITY   SUNNY     59  37  42 SW3       30.26S
HILL AFB       SUNNY     59  37  42 E6        30.26S
LOGAN          SUNNY     56  39  53 CALM      30.26F
OGDEN          SUNNY     62  36  37 VRB5      30.25S
PROVO AIRPORT  SUNNY     57  37  47 CALM      30.26F
SALT LAKE CITY MOSUNNY   65  32  29 VRB6      30.24S
VERNAL         SUNNY     57  29  34 VRB3      30.28S
WENDOVER       SUNNY     57  41  54 SE6       30.26S
HEBER CITY     SUNNY     54  32  43 CALM      30.27F

$$

UTZ012>022-026-027-031800-

SOUTHERN/CENTRAL UTAH

CITY           SKY/WX    TMP DP  RH WIND       PRES   REMARKS
BLANDING       SUNNY     62  28  28 NE12      30.31S
BRYCE CANYON   SUNNY     52  31  44 VRB5      30.32S
CEDAR CITY     SUNNY     58  39  49 VRB7      30.24S
DELTA          SUNNY     59  36  41 CALM      30.25S
HANKSVILLE     SUNNY     63  34  34 CALM      30.25S
MILFORD        SUNNY     62  36  37 N10       30.23F
MOAB/CYNLANDS  SUNNY     66  30  26 E6        30.21S
PRICE          SUNNY     62  25  24 VRB5      30.26S
ST GEORGE      SUNNY     64  39  39 NW3       30.18F

$$

REGIONAL REPORTS     COLORADO/ARIZONA

CITY           SKY/WX    TMP DP  RH WIND       PRES   REMARKS
CRAIG, CO      SUNNY     54  28  36 W5        30.30S
GRAND JUNCTION SUNNY     59  32  36 VRB5      30.23F
RIFLE          SUNNY     58  29  33 CALM      30.26F
MONTROSE       SUNNY     56  33  42 CALM      30.27F
CORTEZ         SUNNY     60  34  37 VRB5      30.22F
PAGE, AZ       SUNNY     62  38  40 VRB3      30.22S
GRAND CANYON   SUNNY     57  34  41 NE16G23   30.27S
KINGMAN        SUNNY     72  38  29 MISG      30.11S
FLAGSTAFF      SUNNY     53  38  56 NE14G22   30.26S

$$

REGIONAL REPORTS    NEVADA/IDAHO/WYOMING

CITY           SKY/WX    TMP DP  RH WIND       PRES   REMARKS
LAS VEGAS, NV  SUNNY     75  36  24 NE14      30.07S
ELY            SUNNY     55  32  41 N3        30.28F
ELKO           SUNNY     59  34  39 CALM      30.24S
POCATELLO, ID  SUNNY     63  34  33 NE3       30.26S
BURLEY         SUNNY     63  35  35 VRB3      30.22S
EVANSTON, WY   SUNNY     55  26  32 CALM      30.33R
ROCK SPRINGS   SUNNY     53  25  33 W8        30.32S
KEMMERER         N/A     55  19  24 SW5       30.33S

$$




USA.gov is the U.S. government's official web portal to all federal, state and local government web resources and services.